Regional Weather Roundup
Issued by NWS Charleston, SC

Current Version | Previous Version | Text Only | Print | Product List | Glossary Off
Versions: 1 2 3 4 5 6 7 8 9 10 11 12 13 14 15 16 17 18 19 20 21 22 23 24 25 26 27 28 29 30 31 32 33 34 35 36 37 38 39 40 41 42 43 44 45 46 47 48 49 50
157 ASUS42 KCHS 161927 RWRCHS REGIONAL WEATHER ROUNDUP NATIONAL WEATHER SERVICE CHARLESTON SC 300 PM EDT MON OCT 16 2017 NOTE: "FAIR" INDICATES FEW OR NO CLOUDS BELOW 12,000 FEET WITH NO SIGNIFICANT WEATHER AND/OR OBSTRUCTIONS TO VISIBILITY. NOT ALL STATIONS ARE QUALITY CONTROLLED. USE DATA WITH CAUTION... ESPECIALLY DEWPOINT OBSERVATIONS. SCZ027-030-031-034>040-042>050-162000- ...SOUTHEAST SOUTH CAROLINA... CITY SKY/WX TMP DP RH WIND PRES REMARKS N CHARLESTON PTSUNNY 83 70 64 N22G29 29.93F WATERFRONT PRK NOT AVBL JOHNS ISLAND MOCLDY 84 72 65 NW5 29.92F PINOPOLIS N/A 73 72 94 N14 29.88F MONCKS CORNER MOCLDY 75 73 94 N12 29.95F SUMMERVILLE MOCLDY 79 72 78 N7 29.95S BEAUFORT MCAS TSTM 74 72 93 W7 29.96S VSB 1/2 BEAUFORT ARPT MOCLDY 77 68 73 NW10 29.93S THUNDER HILTON HEAD IS MOSUNNY 81 73 78 S6 29.94F WALTERBORO PTCLDY 81 68 65 NW6 29.95S ALLENDALE NOT AVBL ...SOUTHERN MIDLANDS AND PEE DEE... CITY SKY/WX TMP DP RH WIND PRES REMARKS GEORGETOWN LGT RAIN 73 72 94 NW14G20 29.95R KINGSTREE CLOUDY 68 64 88 N12G22 29.99R ORANGEBURG CLOUDY 73 66 78 N15 29.98R BARNWELL N/A 81 72 74 N12 29.97F AIKEN CLOUDY 70 64 83 N9 30.05S MANNING DRIZZLE 72 63 73 MISG 29.98R COLUMBIA CLOUDY 68 59 73 NE17G25 30.02S SUMTER CLOUDY 66 61 81 N22 29.99F FLORENCE CLOUDY 64 61 90 N18G28 30.03S MYRTLE BEACH TSTM 73 72 94 N6 29.97R N MYRTLE BEACH HVY RAIN 73 71 93 N7 29.95S FOG $$ GAZ063-065-086>088-099>101-113>116-118-119-134>141-150-162000- ...SOUTHEAST GEORGIA... CITY SKY/WX TMP DP RH WIND PRES REMARKS SAVANNAH ARPT PTSUNNY 87 69 54 NW5 29.93F HX 91 HUNTER AAF PTSUNNY 88 69 54 NW7 29.90F HX 92 FORT STEWART LGT RAIN 82 70 65 NW10G22 29.92F STATESBORO PTSUNNY 83 65 55 NW7 29.95F SYLVANIA MOCLDY 85 71 62 NW10 29.96F HX 90 CLAXTON CLOUDY 76 74 95 W3 29.96F ...CSRA...CENTRAL AND FAR SOUTHEAST GEORGIA... CITY SKY/WX TMP DP RH WIND PRES REMARKS THOMSON CLOUDY 77 64 65 E10 30.04F AUGUSTA-BUSH PTSUNNY 82 67 60 N10 29.98F AUGUSTA-DANIEL MOSUNNY 79 66 64 N9 30.00F SWAINSBORO MOCLDY 82 68 61 NW10 29.98F VIDALIA CLOUDY 82 70 65 NW9 29.96F EASTMAN FAIR 83 56 38 N7 30.01F HAZLEHURST N/A 80 66 62 N5 29.95F ALMA NOT AVBL WAYCROSS MOSUNNY 89 62 40 N3 29.93F JESUP NOT AVBL BAXLEY FAIR 81 70 69 NW7 29.94F BRUNSWICK MOSUNNY 88 66 48 SW3 29.93F HX 90 SAINT SIMONS MOSUNNY 86 74 67 E7 29.93F HX 94 $$ SCZ027-028-034-036>038-045-046-048>050-GAZ119-141-162000- ...LAKE AND SUPPLEMENTAL COASTAL OBSERVATIONS... STATION/POSITION TIME TEMP WIND PRES WAVE SWELL AIR SEA DIR/SP/G HT/PER HT/PER/DIR (UTC) (F) (DEG/KT/KT) (MB) (FT/S) (FT/S/D) WINYAH BAY 1830 83 270/ 7 1013.0F LAKE MURRAY 1920 68 20/ 4/ 10 1016.3 ACE BASIN NERRS 1845 86 280/ 2 1013.0F FORT PULASKI 1900 83 80 290/ 5/ 6 1013.8 SAPELO ISLAND 1900 88 280/ 4 1014.0 $$ ANZ835-935-AMZ111-154-330-350-352-354-370-450-454-472-162000- ...C-MAN AND BUOY OBSERVATIONS... STATION/POSITION TIME TEMP WIND PRES WAVE SWELL AIR SEA DIR/SP/G HT/PER HT/PER/DIR (UTC) (F) (DEG/KT/KT) (MB) (FT/S) (FT/S/D) BUOY 41004 1910 78 82 280/ 8/ 10 1013.1 BUOY 41008 1850 79 81 CALM / 2 1013.9F 2/ 8 2/ 70/ 8 FOLLY BEACH CMAN 1900 85 140/ 2/ 3 1014.0F CAPERS NEARSHORE 1908 85 80 240/ 2/ 2 1013.1F FRIPP NEARSHORE 1908 80 160/ 6/ 8 N/A STATION/POSITION TIME TEMP WIND PRES WAVE SWELL AIR SEA DIR/SP/G HT/PER HT/PER/DIR (UTC) (F) (DEG/KT/KT) (MB) (FT/S) (FT/S/D) 5E ST. MARYS GA 1900 83 N/A 2/ 8 FRYING PAN BUOY 1910 78 79 280/ 6/ 8 1013.1 BUOY 41025 1850 73 78 10/ 16/ 17 1013.9F 3/ 8 2/120/ 8 CAPE LOOKOUT NC 1900 81 240/ 4/ 6 1013.2F BUOY 41002 1850 79 80 230/ 6/ 8 1013.9F 4/ 8 3/ 50/ 8 BUOY 41010 NOT AVBL ST AUGUSTINE FL 1900 80 83 70/ 7/ 9 1014.4F $$

USA.gov is the U.S. government's official web portal to all federal, state and local government web resources and services.